User: anonymous   Login
Location: Spring Creek
(38.2870°N, 100.2160°W)
Time: 21:17:19
(UTC+00:00)
Language:

DELTA 2 R/B (1) - Orbit

View from above orbital plane
View from above orbital plane
View from above satellite
View from above satellite

Ground track
Ground track

The orbit data is extracted from the following two-line orbital elements,

1 27665U 03005C   21212.53136891  .00000022  00000-0  42440-4 0  9990
2 27665  39.5774   4.6344 0009849 327.5237  63.2110 14.28558376966152
Epoch (UTC): 31 July 2021 12:45:10
Eccentricity: 0.0009849
inclination: 39.5774°
perigee height: 789 km
apogee height: 803 km
right ascension of ascending node: 4.6344°
argument of perigee: 327.5237°
revolutions per day: 14.28558376
mean anomaly at epoch: 63.2110°
orbit number at epoch: 96615

The dashed part of the orbit path shows where the satellite is in the earth's shadow,  

DLR